BREEZE-M R/B, 40346

Orbit data source: Space-Track

BREEZE-M R/B, 40346 is space debris originally from a launch on Mon, 15 Dec 2014 UTC launched from the Tyuratam Missile And Space Complex (TTMTR). Debris objects in space refer to the collection of defunct objects orbiting the Earth. Examples of debris include non-operational satellites, rocket bodies, and fragments generated from explosions, collisions, or faulty payload assembly.

Loading next visibility...
Identifier
40346, 2014-082B
Orbit
Active
Country
Flag of CISCIS
Related business
Manufacturer
Khrunichev
Mission
Spacecraft
Bus & Motor
BRIZ, Unknown motor
Mass
~1,600 kg wet, 1,600 kg dry
Launch date (UTC)
2014-12-15 (12 years ago)
Launch vehicle
Unknown
Launch site
Tyuratam Missile And Space Complex (TTMTR)
Object type
Payload
Rocket body
Debris
Shape & HBR
Cyl, 2.0 m
Radar Cross Section
15.135 m², Medium (>0.1 m² and < 1m²)

Expand to show TLE details & history
Last TLE update: 3 days ago

TLE from 3 days ago
0 BREEZE-M R/B
1 40346U 14082B   26170.12573663 -.00000180  00000-0  00000-0 0  9991
2 40346   8.6606  51.4847 0660852 189.2333 169.3940  1.11336092 46581
Epoch: 2026-06-19T03:01Z
TLE epoch observation values (Epoch: 2026-06-19T03:01:03.644Z)
Latitude
0.00001°
Longitude
98.81141°
Altitude
35,507.402 km
Speed
2.983 km/s
True Right ascension
03h 25m 44s
True Declination
0° 00' 00"
Sunlit
Object was in daylight at epoch
Visualization orbit readout
Latitude
Unknown
Longitude
Unknown
Altitude
Unknown
Speed
Unknown
Apparent Right ascension
Unknown
Apparent Declination
Unknown
Sunlit
N/A
Visualization observer readout
Local Sidereal Time
21:37:20
Azimuth
Unknown
Elevation
Unknown
Doppler factor
Unknown
Orbital elements
Apogee altitude
35,544.514 km
Perigee altitude
30,347.055 km
Semi-major axis
39,323.921 km
Eccentricity
0.06609
Inclination
8.6606°
RAAN
51.4847°
Arg. of periapsis
189.2333°
True anomaly
170.68275°
Mean anomaly
169.394°
Eccentric anomaly
170.04835°
Mean motion
0.27833 °/min
Orbital period
1,293.43 mins
BSTAR
0
Loading maneuver chart data...
Computing Atmospheric mass density...
Loading historical data...
Loading historical data...
Loading historical data...
Loading historical data...
Loading historical data...
Loading historical data...
Loading historical data...
Other satellites on launch #82 in the year 2014 (2014-12-15 UTC)

Documentation

Showing up to 5 results
|